Lubbock, TX

6:14 AM CST on November 20, 2019 (GMT -0600)
Lubbock International

Weather History for KLBB - September, 2019

Change the Weather History Date:

Sunday, September 29, 2019

  Actual Average Record
Temperature  
Mean Temperature 76 °F 67 °F  
Max Temperature 86 °F 80 °F 97 °F (1977)
Min Temperature 67 °F 54 °F 33 °F (1916)
Degree Days  
Heating Degree Days 0 2  
Month to date heating degree days 0 21  
Since 1 July heating degree days 0 21  
Cooling Degree Days 12 4  
Month to date cooling degree days 372 218  
Year to date cooling degree days 2090 1744  
Growing Degree Days 26 (Base 50)    
Moisture  
Dew Point 66 °F    
Average Humidity 72    
Maximum Humidity 90    
Minimum Humidity 53    
Precipitation  
Precipitation 0.04 in 0.07 in 0.82 in (1945)
Month to date precipitation 5.97 2.44  
Year to date precipitation 21.56 15.51  
Snow  
Snow 0.00 in 0.00 in - ()
Month to date snowfall 0.0 0.0  
Since 1 July snowfall 0.0 0.0  
Since 1 September snowfall 0.0 0.0  
Snow Depth 0.00 in    
Sea Level Pressure  
Sea Level Pressure 29.84 in    
Wind  
Wind Speed 15 mph ()    
Max Wind Speed 45 mph    
Max Gust Speed 54 mph    
Visibility 9.9 miles    
Events Rain , Thunderstorm    
T = Trace of Precipitation, MM = Missing Value Source: Averaged Metar Reports

Daily Weather History Graph

Daily Weather History Graph

Search for Another Location

Airport or City:

Astronomy

Sep. 29, 2019 Rise Set
Actual Time 7:40 AM CDT 7:34 PM CDT
Civil Twilight 7:15 AM CDT 7:59 PM CDT
Nautical Twilight 6:46 AM CDT 8:28 PM CDT
Astronomical Twilight 6:17 AM CDT 8:57 PM CDT
Moon 8:33 AM CDT (9/29) 8:38 PM CDT (9/29)
Length of Visible Light 12h 44m
Length of Day
11h 54m
New Moon, 1% of the Moon is Illuminated
Sep 29
New Moon
Oct 5
First Quarter
Oct 13
Full
Oct 21
Last Quarter
Oct 27
New

Hourly Weather History & Observations

Time (CDT) Temp. Heat Index Dew Point Humidity Pressure Visibility Wind Dir Wind Speed Gust Speed Precip Events Conditions
12:53 AM 71.1 °F - 64.9 °F 81% 29.79 in 10.0 mi SE 8.1 mph - N/A   Overcast
1:53 AM 70.0 °F - 64.9 °F 84% 29.78 in 10.0 mi SSE 8.1 mph - N/A   Scattered Clouds
2:53 AM 70.0 °F - 64.0 °F 81% 29.79 in 10.0 mi SE 9.2 mph - N/A   Partly Cloudy
3:53 AM 70.0 °F - 62.1 °F 76% 29.78 in 10.0 mi SE 13.8 mph - N/A   Partly Cloudy
4:53 AM 70.0 °F - 64.9 °F 84% 29.78 in 10.0 mi SSE 16.1 mph - N/A   Mostly Cloudy
5:53 AM 71.1 °F - 66.9 °F 87% 29.80 in 10.0 mi SSE 16.1 mph - N/A   Mostly Cloudy
6:53 AM 71.1 °F - 68.0 °F 90% 29.81 in 10.0 mi SSE 13.8 mph - N/A   Mostly Cloudy
7:53 AM 72.0 °F - 68.0 °F 87% 29.83 in 10.0 mi SSE 12.7 mph - N/A   Overcast
8:53 AM 73.9 °F - 68.0 °F 82% 29.83 in 10.0 mi South 13.8 mph 24.2 mph N/A   Overcast
9:53 AM 75.0 °F - 68.0 °F 79% 29.85 in 10.0 mi South 21.9 mph - N/A   Overcast
10:53 AM 75.9 °F - 68.0 °F 76% 29.86 in 10.0 mi South 19.6 mph 26.5 mph N/A   Overcast
11:17 AM 78.1 °F - 68.0 °F 71% 30.00 in 10.0 mi South 24.2 mph - N/A   Overcast
11:38 AM 78.1 °F - 68.0 °F 71% 30.00 in 10.0 mi South 21.9 mph 28.8 mph N/A   Overcast
11:53 AM 79.0 °F - 68.0 °F 69% 29.86 in 10.0 mi South 23.0 mph 28.8 mph N/A   Overcast
12:01 PM 80.1 °F 82.7 °F 68.0 °F 67% 30.00 in 10.0 mi South 23.0 mph 29.9 mph N/A   Overcast
12:53 PM 79.0 °F - 66.9 °F 66% 29.85 in 10.0 mi South 23.0 mph 28.8 mph N/A   Overcast
1:53 PM 82.0 °F 84.9 °F 68.0 °F 62% 29.83 in 10.0 mi South 18.4 mph - N/A   Overcast
2:53 PM 82.9 °F 85.4 °F 66.9 °F 58% 29.80 in 10.0 mi South 21.9 mph 28.8 mph N/A   Mostly Cloudy
3:53 PM 84.9 °F 87.6 °F 66.9 °F 55% 29.77 in 10.0 mi South 21.9 mph 29.9 mph N/A   Mostly Cloudy
4:53 PM 84.9 °F 87.1 °F 66.0 °F 53% 29.76 in 10.0 mi South 23.0 mph 29.9 mph N/A   Mostly Cloudy
5:53 PM 84.9 °F 87.1 °F 66.0 °F 53% 29.76 in 10.0 mi South 21.9 mph 29.9 mph N/A   Scattered Clouds
6:53 PM 82.0 °F 84.1 °F 66.0 °F 58% 29.78 in 10.0 mi South 13.8 mph - N/A   Mostly Cloudy
7:53 PM 79.0 °F - 66.9 °F 66% 29.78 in 10.0 mi SSE 12.7 mph - N/A   Mostly Cloudy
8:53 PM 78.1 °F - 66.9 °F 68% 29.79 in 10.0 mi SSE 15.0 mph - N/A   Mostly Cloudy
9:53 PM 77.0 °F - 66.9 °F 71% 29.83 in 10.0 mi SSE 15.0 mph - N/A   Overcast
10:53 PM 77.0 °F - 66.9 °F 71% 29.86 in 10.0 mi SSE 16.1 mph - N/A   Overcast
11:53 PM 70.0 °F - 63.0 °F 78% 29.91 in 9.0 mi WSW 40.3 mph 51.8 mph 0.00 in Rain Rain
11:56 PM 68.0 °F - 61.0 °F 78% 30.06 in 9.0 mi WSW 38.0 mph 54.1 mph 0.00 in Rain , Thunderstorm Light Rain